Preston, MN

3:58 AM CDT on May 28, 2017 (GMT -0500)
Preston

Weather History for KFKA - December, 2012

Change the Weather History Date:

Sunday, December 30, 2012

  Actual Average (KRST) Record (KRST)
Temperature  
Mean Temperature 12 °F -  
Max Temperature 26 °F 21 °F 52 °F (1890)
Min Temperature -2 °F 4 °F -28 °F (1887)
Degree Days  
Heating Degree Days 53    
Moisture  
Dew Point 9 °F    
Average Humidity 85    
Maximum Humidity 91    
Minimum Humidity 76    
Precipitation  
Precipitation 0.00 in - - ()
Sea Level Pressure  
Sea Level Pressure 30.07 in    
Wind  
Wind Speed 7 mph (SSW)    
Max Wind Speed 17 mph    
Max Gust Speed 22 mph    
Visibility 9 miles    
Events Snow    
Averages and records for this station are not official NWS values.
T = Trace of Precipitation, MM = Missing Value Source: NWS Daily Summary

Daily Weather History Graph

Daily Weather History Graph

Search for Another Location

Airport or City:

Trip Planner

Search our weather history database for the weather conditions in past years. The results will help you decide how hot, cold, wet, or windy it might be!

Date:

Astronomy

Dec. 30, 2012 Rise Set
Actual Time 7:42 AM CST 4:41 PM CST
Civil Twilight 7:09 AM CST 5:13 PM CST
Nautical Twilight 6:33 AM CST 5:49 PM CST
Astronomical Twilight 5:58 AM CST 6:24 PM CST
Moon 7:17 PM CST (12/30) 8:46 AM CST (12/30)
Length of Visible Light 10h 04m
Length of Day
8h 58m
Waning Gibbous, 95% of the Moon is Illuminated
Dec 30
Waning Gibbous
Jan 4
Last Quarter
Jan 11
New
Jan 18
First Quarter
Jan 26
Full

Hourly Weather History & Observations

Time (CST) Temp. Windchill Dew Point Humidity Pressure Visibility Wind Dir Wind Speed Gust Speed Precip Events Conditions
12:10 AM 4.5 °F -6.3 °F 1.9 °F 89% 30.14 in 7.0 mi WSW 5.8 mph - N/A   Clear
12:29 AM 4.5 °F - 2.1 °F 90% 30.14 in 10.0 mi Calm Calm - N/A   Clear
12:50 AM 4.1 °F -6.7 °F 1.8 °F 90% 30.15 in 7.0 mi WSW 5.8 mph - N/A   Clear
1:10 AM 4.1 °F -6.7 °F 1.4 °F 89% 30.16 in 10.0 mi SW 5.8 mph - N/A   Clear
1:30 AM 4.1 °F -6.7 °F 1.4 °F 89% 30.16 in 10.0 mi WSW 5.8 mph - N/A   Clear
1:50 AM 3.2 °F - 0.5 °F 89% 30.15 in 7.0 mi Calm Calm - N/A   Clear
2:09 AM 3.0 °F -6.4 °F 0.5 °F 89% 30.16 in 7.0 mi SW 4.6 mph - N/A   Clear
2:30 AM 2.3 °F -8.8 °F -0.4 °F 88% 30.18 in 10.0 mi SW 5.8 mph - N/A   Clear
2:49 AM 1.9 °F -7.6 °F -1.1 °F 87% 30.18 in 7.0 mi SW 4.6 mph - N/A   Clear
3:09 AM 1.4 °F -8.3 °F -1.5 °F 88% 30.18 in 7.0 mi SW 4.6 mph - N/A   Clear
3:30 AM 0.9 °F - -2.2 °F 87% 30.18 in 7.0 mi Calm Calm - N/A   Clear
3:50 AM 0.1 °F -11.4 °F -2.9 °F 87% 30.18 in 10.0 mi SSW 5.8 mph - N/A   Clear
4:10 AM 0.5 °F -12.3 °F -2.4 °F 88% 30.18 in 10.0 mi SSW 6.9 mph - N/A   Clear
4:30 AM 0.5 °F -11.0 °F -2.6 °F 87% 30.18 in 7.0 mi SSW 5.8 mph - N/A   Clear
4:50 AM 0.1 °F -7.7 °F -2.7 °F 88% 30.18 in 10.0 mi SW 3.5 mph - N/A   Clear
5:09 AM -0.0 °F - -3.1 °F 87% 30.18 in 10.0 mi Calm Calm - N/A   Clear
5:30 AM -0.0 °F -7.9 °F -3.1 °F 87% 30.17 in 7.0 mi South 3.5 mph - N/A   Scattered Clouds
5:49 AM -1.3 °F -9.3 °F -4.2 °F 88% 30.18 in 7.0 mi SW 3.5 mph - N/A   Mostly Cloudy
6:09 AM -0.8 °F -10.8 °F -4.0 °F 86% 30.17 in 7.0 mi South 4.6 mph - N/A   Overcast
6:29 AM -0.6 °F -8.5 °F -3.6 °F 87% 30.19 in 7.0 mi SSW 3.5 mph - N/A   Overcast
6:50 AM -0.4 °F -10.4 °F -3.3 °F 88% 30.19 in 7.0 mi SSW 4.6 mph - N/A   Overcast
7:10 AM -2.2 °F -15.6 °F -5.3 °F 87% 30.18 in 7.0 mi South 6.9 mph - N/A   Overcast
7:29 AM -2.2 °F -14.2 °F -5.3 °F 87% 30.18 in 7.0 mi South 5.8 mph - N/A   Mostly Cloudy
7:50 AM -2.6 °F -17.3 °F -5.8 °F 86% 30.17 in 7.0 mi South 8.1 mph - N/A   Scattered Clouds
8:10 AM -1.5 °F -17.1 °F -4.5 °F 87% 30.18 in 7.0 mi SSW 9.2 mph - N/A   Mostly Cloudy
8:30 AM 1.6 °F -12.2 °F -1.3 °F 88% 30.18 in 4.0 mi SSW 8.1 mph - N/A   Overcast
8:50 AM 3.2 °F -10.3 °F 0.5 °F 89% 30.19 in 4.0 mi SSW 8.1 mph - N/A   Mostly Cloudy
9:10 AM 3.7 °F -7.1 °F 1.0 °F 89% 30.19 in 7.0 mi South 5.8 mph - N/A   Scattered Clouds
9:29 AM 4.5 °F -2.7 °F 1.8 °F 89% 30.19 in 5.0 mi South 3.5 mph - N/A Snow Light Snow
9:50 AM 6.4 °F -0.5 °F 3.9 °F 89% 30.18 in 5.0 mi South 3.5 mph - N/A Snow Light Snow
10:10 AM 8.4 °F -0.1 °F 6.1 °F 90% 30.17 in 5.0 mi South 4.6 mph - N/A   Clear
10:30 AM 10.6 °F -1.3 °F 8.2 °F 90% 30.17 in 7.0 mi South 8.1 mph - N/A   Clear
10:50 AM 12.4 °F 0.9 °F 10.2 °F 91% 30.16 in 10.0 mi South 8.1 mph - N/A   Clear
11:10 AM 14.7 °F 3.8 °F 12.2 °F 90% 30.16 in 10.0 mi South 8.1 mph - N/A   Clear
11:30 AM 15.8 °F 4.2 °F 11.8 °F 84% 30.15 in 10.0 mi South 9.2 mph - N/A   Clear
11:50 AM 16.7 °F 3.2 °F 11.7 °F 81% 30.14 in 10.0 mi South 12.7 mph - N/A   Clear
12:10 PM 16.7 °F 2.0 °F 11.7 °F 81% 30.12 in 10.0 mi South 15.0 mph - N/A   Clear
12:30 PM 17.1 °F 3.0 °F 12.4 °F 82% 30.10 in 10.0 mi South 13.8 mph - N/A   Clear
12:50 PM 18.3 °F 3.6 °F 13.1 °F 80% 30.08 in 10.0 mi South 16.1 mph - N/A   Clear
1:10 PM 19.8 °F 5.9 °F 14.5 °F 80% 30.06 in 10.0 mi South 15.0 mph - N/A   Clear
1:29 PM 20.7 °F 6.1 °F 15.3 °F 80% 30.05 in 7.0 mi South 17.3 mph - N/A   Clear
1:50 PM 21.2 °F 8.9 °F 15.6 °F 79% 30.05 in 10.0 mi South 12.7 mph - N/A   Clear
2:10 PM 21.2 °F 8.3 °F 15.6 °F 79% 30.03 in 10.0 mi South 13.8 mph - N/A   Clear
2:29 PM 21.7 °F 9.6 °F 15.8 °F 78% 30.03 in 10.0 mi South 12.7 mph - N/A   Clear
2:50 PM 22.3 °F 11.5 °F 16.3 °F 78% 30.01 in 10.0 mi SSE 10.4 mph - N/A   Clear
3:10 PM 22.8 °F 10.9 °F 16.3 °F 76% 30.01 in 10.0 mi SSE 12.7 mph - N/A   Clear
3:30 PM 22.3 °F 12.2 °F 15.8 °F 76% 30.00 in 10.0 mi SSE 9.2 mph - N/A   Clear
3:50 PM 22.5 °F 10.5 °F 16.2 °F 77% 29.99 in 10.0 mi South 12.7 mph - N/A   Clear
4:10 PM 22.8 °F 12.2 °F 16.7 °F 77% 29.97 in 10.0 mi South 10.4 mph - N/A   Clear
4:35 PM 22.5 °F 11.1 °F 16.5 °F 78% 29.96 in 10.0 mi South 11.5 mph - N/A   Clear
5:09 PM 21.2 °F 10.1 °F 16.0 °F 80% 29.95 in 10.0 mi South 10.4 mph - N/A   Clear
5:29 PM 21.2 °F 10.9 °F 16.3 °F 82% 29.95 in 10.0 mi South 9.2 mph - N/A   Clear
5:50 PM 21.6 °F 9.9 °F 16.7 °F 82% 29.96 in 10.0 mi South 11.5 mph - N/A   Clear
6:10 PM 21.9 °F 9.8 °F 17.4 °F 83% 29.95 in 10.0 mi South 12.7 mph 17.3 mph N/A   Clear
6:30 PM 22.5 °F 8.5 °F 18.1 °F 83% 29.94 in 10.0 mi South 17.3 mph 21.9 mph N/A   Clear
6:49 PM 23.0 °F 11.1 °F 18.5 °F 83% 29.94 in 10.0 mi South 12.7 mph - N/A   Clear
7:10 PM 23.2 °F 11.4 °F 18.9 °F 84% 29.92 in 10.0 mi South 12.7 mph - N/A   Clear
7:29 PM 23.5 °F 11.8 °F 19.2 °F 84% 29.92 in 10.0 mi South 12.7 mph 18.4 mph N/A   Clear
7:50 PM 23.9 °F 10.8 °F 19.6 °F 84% 29.90 in 10.0 mi South 16.1 mph - N/A   Clear
8:10 PM 23.7 °F 12.6 °F 19.8 °F 85% 29.91 in 10.0 mi SSW 11.5 mph - N/A   Clear
8:30 PM 24.3 °F 12.7 °F 20.3 °F 85% 29.91 in 10.0 mi SSW 12.7 mph - N/A   Clear
8:50 PM 24.1 °F 13.7 °F 20.3 °F 85% 29.91 in 10.0 mi SSW 10.4 mph - N/A   Scattered Clouds
9:10 PM 23.9 °F 15.0 °F 19.9 °F 85% 29.90 in 10.0 mi SW 8.1 mph - N/A   Scattered Clouds
9:30 PM 25.7 °F 16.4 °F 21.0 °F 82% 29.90 in 10.0 mi WSW 9.2 mph - N/A   Clear
9:49 PM 26.6 °F 17.5 °F 21.2 °F 80% 29.90 in 10.0 mi WSW 9.2 mph - N/A   Clear
10:10 PM 26.4 °F 16.0 °F 21.2 °F 81% 29.90 in 10.0 mi WSW 11.5 mph 17.3 mph N/A   Clear
10:30 PM 25.7 °F 15.1 °F 20.8 °F 82% 29.90 in 10.0 mi West 11.5 mph - N/A   Clear
10:50 PM 24.6 °F 13.2 °F 20.1 °F 83% 29.91 in 10.0 mi West 12.7 mph - N/A   Clear
11:10 PM 23.0 °F 11.7 °F 19.0 °F 85% 29.92 in 10.0 mi West 11.5 mph - N/A   Clear
11:30 PM 21.7 °F 10.2 °F 18.0 °F 85% 29.92 in 10.0 mi West 11.5 mph - N/A   Clear
11:49 PM 20.8 °F 7.9 °F 17.2 °F 86% 29.93 in 10.0 mi West 13.8 mph - N/A   Clear